Time,TemperatureF,DewpointF,PressureIn,WindDirection,WindDirectionDegrees,WindSpeedMPH,WindSpeedGustMPH,Humidity,HourlyPrecipIn,Conditions,Clouds,dailyrainin,SoftwareType,DateUTC
2013-03-04 00:00:00,56.6,45.0,29.99,WSW,253,1.0,1.0,65,0.00,,,0.00,Wunderground v.1.15,2013-03-04 06:00:00,
2013-03-04 00:10:00,56.8,45.2,29.99,SE,129,1.0,1.0,65,0.00,,,0.00,Wunderground v.1.15,2013-03-04 06:10:00,
2013-03-04 00:20:00,56.8,45.6,29.98,SE,141,1.0,1.0,66,0.00,,,0.00,Wunderground v.1.15,2013-03-04 06:20:00,
2013-03-04 00:30:00,56.5,45.7,29.98,South,172,1.0,1.0,67,0.00,,,0.00,Wunderground v.1.15,2013-03-04 06:30:00,
2013-03-04 00:40:00,56.3,45.9,29.98,South,180,1.0,1.0,68,0.00,,,0.00,Wunderground v.1.15,2013-03-04 06:40:00,
2013-03-04 00:45:00,56.3,45.9,29.98,South,181,1.0,1.0,68,0.00,,,0.00,Wunderground v.1.15,2013-03-04 06:45:00,
2013-03-04 00:55:00,56.1,46.1,29.97,SSW,207,1.0,1.0,69,0.00,,,0.00,Wunderground v.1.15,2013-03-04 06:55:00,
2013-03-04 01:05:00,55.9,45.9,29.97,SSW,201,1.0,2.0,69,0.00,,,0.00,Wunderground v.1.15,2013-03-04 07:05:00,
2013-03-04 01:15:00,55.5,45.9,29.97,SSW,213,0.0,1.0,70,0.00,,,0.00,Wunderground v.1.15,2013-03-04 07:15:00,
2013-03-04 01:25:00,55.0,45.8,29.97,SSW,199,0.0,0.0,71,0.00,,,0.00,Wunderground v.1.15,2013-03-04 07:25:00,
2013-03-04 01:35:00,54.8,45.9,29.97,South,183,1.0,1.0,72,0.00,,,0.00,Wunderground v.1.15,2013-03-04 07:35:00,
2013-03-04 01:45:00,54.7,45.8,29.97,ESE,122,1.0,1.0,72,0.00,,,0.00,Wunderground v.1.15,2013-03-04 07:45:00,
2013-03-04 01:54:00,54.7,45.8,29.96,SW,215,1.0,1.0,72,0.00,,,0.00,Wunderground v.1.15,2013-03-04 07:54:00,
2013-03-04 02:00:00,54.5,46.0,29.96,SSW,208,1.0,1.0,73,0.00,,,0.00,Wunderground v.1.15,2013-03-04 08:00:00,
2013-03-04 02:10:00,54.1,46.0,29.96,SSW,208,1.0,1.0,74,0.00,,,0.00,Wunderground v.1.15,2013-03-04 08:10:00,
2013-03-04 02:20:00,53.8,45.7,29.95,West,278,0.0,0.0,74,0.00,,,0.00,Wunderground v.1.15,2013-03-04 08:20:00,
2013-03-04 02:30:00,53.5,45.8,29.94,SSW,195,0.0,0.0,75,0.00,,,0.00,Wunderground v.1.15,2013-03-04 08:30:00,
2013-03-04 02:40:00,53.3,45.9,29.94,SW,221,0.0,1.0,76,0.00,,,0.00,Wunderground v.1.15,2013-03-04 08:40:00,
2013-03-04 02:50:00,53.2,45.8,29.94,SW,229,0.0,0.0,76,0.00,,,0.00,Wunderground v.1.15,2013-03-04 08:50:00,
2013-03-04 02:55:00,53.1,46.1,29.94,South,173,0.0,0.0,77,0.00,,,0.00,Wunderground v.1.15,2013-03-04 08:55:00,
2013-03-04 03:05:00,52.9,46.2,29.94,WSW,239,0.0,0.0,78,0.00,,,0.00,Wunderground v.1.15,2013-03-04 09:05:00,
2013-03-04 03:15:00,52.6,45.9,29.94,WSW,238,0.0,0.0,78,0.00,,,0.00,Wunderground v.1.15,2013-03-04 09:15:00,
2013-03-04 03:25:00,52.1,45.8,29.94,SW,234,0.0,0.0,79,0.00,,,0.00,Wunderground v.1.15,2013-03-04 09:25:00,
2013-03-04 03:35:00,51.7,45.7,29.93,SW,235,0.0,0.0,80,0.00,,,0.00,Wunderground v.1.15,2013-03-04 09:35:00,
2013-03-04 03:45:00,51.3,45.7,29.93,SW,235,0.0,0.0,81,0.00,,,0.00,Wunderground v.1.15,2013-03-04 09:45:00,
2013-03-04 03:55:00,50.9,45.3,29.93,SW,235,0.0,0.0,81,0.00,,,0.00,Wunderground v.1.15,2013-03-04 09:55:00,
2013-03-04 04:05:00,50.3,45.3,29.92,SW,235,0.0,0.0,83,0.00,,,0.00,Wunderground v.1.15,2013-03-04 10:05:00,
2013-03-04 04:15:00,50.1,45.8,29.92,SW,233,0.0,0.0,85,0.00,,,0.00,Wunderground v.1.15,2013-03-04 10:15:00,
2013-03-04 04:25:00,49.8,45.5,29.92,SW,233,0.0,0.0,85,0.00,,,0.00,Wunderground v.1.15,2013-03-04 10:25:00,
2013-03-04 04:35:00,49.4,45.1,29.92,SW,233,0.0,0.0,85,0.00,,,0.00,Wunderground v.1.15,2013-03-04 10:35:00,
2013-03-04 04:45:00,49.2,45.8,29.92,SW,233,0.0,0.0,88,0.00,,,0.00,Wunderground v.1.15,2013-03-04 10:45:00,
2013-03-04 04:50:00,49.2,45.8,29.92,SW,233,0.0,0.0,88,0.00,,,0.00,Wunderground v.1.15,2013-03-04 10:50:00,
2013-03-04 05:00:00,49.1,45.7,29.92,SW,233,0.0,0.0,88,0.00,,,0.00,Wunderground v.1.15,2013-03-04 11:00:00,
2013-03-04 05:10:00,48.7,45.3,29.92,SW,233,0.0,0.0,88,0.00,,,0.00,Wunderground v.1.15,2013-03-04 11:10:00,
2013-03-04 05:20:00,48.5,45.7,29.92,SW,233,0.0,0.0,90,0.00,,,0.00,Wunderground v.1.15,2013-03-04 11:20:00,
2013-03-04 05:30:00,48.1,45.3,29.92,SW,233,0.0,0.0,90,0.00,,,0.00,Wunderground v.1.15,2013-03-04 11:30:00,
2013-03-04 05:40:00,48.3,45.8,29.92,SW,233,0.0,0.0,91,0.00,,,0.00,Wunderground v.1.15,2013-03-04 11:40:00,
2013-03-04 05:50:00,48.5,46.0,29.92,SW,233,0.0,0.0,91,0.00,,,0.00,Wunderground v.1.15,2013-03-04 11:50:00,
2013-03-04 05:59:00,48.5,46.0,29.92,SW,233,0.0,0.0,91,0.00,,,0.00,Wunderground v.1.15,2013-03-04 11:59:00,
2013-03-04 06:05:00,48.5,46.0,29.92,SW,233,0.0,0.0,91,0.00,,,0.00,Wunderground v.1.15,2013-03-04 12:05:00,
2013-03-04 06:15:00,48.5,46.0,29.92,SW,233,0.0,0.0,91,0.00,,,0.00,Wunderground v.1.15,2013-03-04 12:15:00,
2013-03-04 06:25:00,48.5,46.0,29.92,SW,233,0.0,0.0,91,0.00,,,0.00,Wunderground v.1.15,2013-03-04 12:25:00,
2013-03-04 06:30:00,48.4,45.9,29.92,SW,233,0.0,0.0,91,0.00,,,0.00,Wunderground v.1.15,2013-03-04 12:30:00,
2013-03-04 06:40:00,47.9,45.7,29.92,SW,233,0.0,0.0,92,0.00,,,0.00,Wunderground v.1.15,2013-03-04 12:40:00,
2013-03-04 06:49:00,48.2,46.0,29.92,SW,233,0.0,0.0,92,0.00,,,0.00,Wunderground v.1.15,2013-03-04 12:49:00,
2013-03-04 06:55:00,48.2,46.0,29.92,SW,233,0.0,0.0,92,0.00,,,0.00,Wunderground v.1.15,2013-03-04 12:55:00,
2013-03-04 07:05:00,48.3,46.1,29.92,SW,233,0.0,0.0,92,0.00,,,0.00,Wunderground v.1.15,2013-03-04 13:05:00,
2013-03-04 07:14:00,48.5,46.6,29.92,SW,233,0.0,0.0,93,0.00,,,0.00,Wunderground v.1.15,2013-03-04 13:14:00,
2013-03-04 07:20:00,48.5,46.6,29.93,SW,233,0.0,0.0,93,0.00,,,0.00,Wunderground v.1.15,2013-03-04 13:20:00,
2013-03-04 07:30:00,49.0,47.1,29.92,SW,227,0.0,0.0,93,0.00,,,0.00,Wunderground v.1.15,2013-03-04 13:30:00,
2013-03-04 07:40:00,49.4,47.5,29.92,SW,227,0.0,0.0,93,0.00,,,0.00,Wunderground v.1.15,2013-03-04 13:40:00,
2013-03-04 07:50:00,50.0,48.1,29.93,SW,231,0.0,0.0,93,0.00,,,0.00,Wunderground v.1.15,2013-03-04 13:50:00,
2013-03-04 08:00:00,50.8,48.8,29.93,SW,226,0.0,0.0,93,0.00,,,0.00,Wunderground v.1.15,2013-03-04 14:00:00,
2013-03-04 08:10:00,51.7,49.5,29.92,SW,224,0.0,0.0,92,0.00,,,0.00,Wunderground v.1.15,2013-03-04 14:10:00,
2013-03-04 08:15:00,52.3,50.0,29.92,WSW,238,0.0,2.0,92,0.00,,,0.00,Wunderground v.1.15,2013-03-04 14:15:00,
2013-03-04 08:24:00,53.3,50.7,29.92,WSW,243,1.0,1.0,91,0.00,,,0.00,Wunderground v.1.15,2013-03-04 14:24:00,
2013-03-04 08:30:00,54.1,51.2,29.92,West,278,1.0,1.0,90,0.00,,,0.00,Wunderground v.1.15,2013-03-04 14:30:00,
2013-03-04 08:40:00,56.3,53.1,29.93,SW,216,1.0,2.0,89,0.00,,,0.00,Wunderground v.1.15,2013-03-04 14:40:00,
2013-03-04 08:50:00,58.1,53.6,29.93,NW,324,3.0,3.0,85,0.00,,,0.00,Wunderground v.1.15,2013-03-04 14:50:00,
2013-03-04 09:00:00,59.4,54.2,29.93,SW,232,1.0,1.0,83,0.00,,,0.00,Wunderground v.1.15,2013-03-04 15:00:00,
2013-03-04 09:10:00,60.7,54.1,29.93,WNW,295,2.0,2.0,79,0.00,,,0.00,Wunderground v.1.15,2013-03-04 15:10:00,
2013-03-04 09:15:00,61.3,54.4,29.93,WNW,298,3.0,3.0,78,0.00,,,0.00,Wunderground v.1.15,2013-03-04 15:15:00,
2013-03-04 09:25:00,61.8,54.2,29.93,SSW,193,3.0,4.0,76,0.00,,,0.00,Wunderground v.1.15,2013-03-04 15:25:00,
2013-03-04 09:35:00,62.0,54.0,29.92,WSW,243,2.0,3.0,75,0.00,,,0.00,Wunderground v.1.15,2013-03-04 15:35:00,
2013-03-04 09:45:00,61.7,54.1,29.93,SW,235,2.0,4.0,76,0.00,,,0.00,Wunderground v.1.15,2013-03-04 15:45:00,
2013-03-04 09:55:00,62.9,54.1,29.93,South,184,3.0,4.0,73,0.00,,,0.00,Wunderground v.1.15,2013-03-04 15:55:00,
2013-03-04 10:00:00,63.6,54.4,29.92,West,277,3.0,3.0,72,0.00,,,0.00,Wunderground v.1.15,2013-03-04 16:00:00,
2013-03-04 10:10:00,64.9,53.7,29.92,East,93,3.0,3.0,67,0.00,,,0.00,Wunderground v.1.15,2013-03-04 16:10:00,
2013-03-04 10:19:00,65.7,53.6,29.92,WNW,288,3.0,3.0,65,0.00,,,0.00,Wunderground v.1.15,2013-03-04 16:19:00,
2013-03-04 10:25:00,65.9,53.8,29.91,SW,222,3.0,3.0,65,0.00,,,0.00,Wunderground v.1.15,2013-03-04 16:25:00,
2013-03-04 10:35:00,66.7,54.1,29.90,ENE,65,3.0,3.0,64,0.00,,,0.00,Wunderground v.1.15,2013-03-04 16:35:00,
2013-03-04 10:44:00,67.8,53.9,29.91,West,276,4.0,4.0,61,0.00,,,0.00,Wunderground v.1.15,2013-03-04 16:44:00,
2013-03-04 10:50:00,68.2,54.2,29.90,WSW,257,3.0,3.0,61,0.00,,,0.00,Wunderground v.1.15,2013-03-04 16:50:00,
2013-03-04 11:00:00,69.3,53.4,29.90,WSW,255,3.0,3.0,57,0.00,,,0.00,Wunderground v.1.15,2013-03-04 17:00:00,
2013-03-04 11:05:00,69.2,53.3,29.90,WSW,242,3.0,5.0,57,0.00,,,0.00,Wunderground v.1.15,2013-03-04 17:05:00,
2013-03-04 11:15:00,70.5,53.6,29.90,West,274,3.0,7.0,55,0.00,,,0.00,Wunderground v.1.15,2013-03-04 17:15:00,
2013-03-04 11:25:00,71.3,53.8,29.89,SSW,212,4.0,5.0,54,0.00,,,0.00,Wunderground v.1.15,2013-03-04 17:25:00,
2013-03-04 11:30:00,71.7,53.7,29.89,South,188,3.0,3.0,53,0.00,,,0.00,Wunderground v.1.15,2013-03-04 17:30:00,
2013-03-04 11:40:00,72.5,53.3,29.88,SW,228,3.0,3.0,51,0.00,,,0.00,Wunderground v.1.15,2013-03-04 17:40:00,
2013-03-04 11:50:00,73.8,54.0,29.88,South,169,3.0,4.0,50,0.00,,,0.00,Wunderground v.1.15,2013-03-04 17:50:00,
2013-03-04 12:00:00,74.8,53.2,29.87,West,262,3.0,6.0,47,0.00,,,0.00,Wunderground v.1.15,2013-03-04 18:00:00,
2013-03-04 12:10:00,75.2,53.6,29.86,SW,217,3.0,3.0,47,0.00,,,0.00,Wunderground v.1.15,2013-03-04 18:10:00,
2013-03-04 12:15:00,75.6,53.4,29.86,West,277,3.0,3.0,46,0.00,,,0.00,Wunderground v.1.15,2013-03-04 18:15:00,
2013-03-04 12:25:00,76.0,52.5,29.86,West,260,4.0,5.0,44,0.00,,,0.00,Wunderground v.1.15,2013-03-04 18:25:00,
2013-03-04 12:30:00,76.1,52.6,29.85,East,82,4.0,4.0,44,0.00,,,0.00,Wunderground v.1.15,2013-03-04 18:30:00,
2013-03-04 12:40:00,77.5,52.6,29.84,SSW,212,3.0,3.0,42,0.00,,,0.00,Wunderground v.1.15,2013-03-04 18:40:00,
2013-03-04 12:45:00,78.3,52.0,29.84,West,281,3.0,4.0,40,0.00,,,0.00,Wunderground v.1.15,2013-03-04 18:45:00,
2013-03-04 12:55:00,78.7,52.3,29.84,NW,305,4.0,4.0,40,0.00,,,0.00,Wunderground v.1.15,2013-03-04 18:55:00,
2013-03-04 12:59:00,79.0,51.2,29.84,WNW,285,3.0,5.0,38,0.00,,,0.00,Wunderground v.1.15,2013-03-04 18:59:00,
2013-03-04 13:05:00,79.0,51.9,29.83,WSW,250,4.0,5.0,39,0.00,,,0.00,Wunderground v.1.15,2013-03-04 19:05:00,
2013-03-04 13:15:00,80.5,52.6,29.83,WNW,285,3.0,4.0,38,0.00,,,0.00,Wunderground v.1.15,2013-03-04 19:15:00,
2013-03-04 13:25:00,81.0,52.3,29.82,SE,125,3.0,3.0,37,0.00,,,0.00,Wunderground v.1.15,2013-03-04 19:25:00,
2013-03-04 13:35:00,82.7,51.5,29.81,West,281,2.0,2.0,34,0.00,,,0.00,Wunderground v.1.15,2013-03-04 19:35:00,
2013-03-04 13:45:00,82.8,50.8,29.80,SW,228,3.0,3.0,33,0.00,,,0.00,Wunderground v.1.15,2013-03-04 19:45:00,
2013-03-04 13:54:00,83.6,50.6,29.79,West,271,3.0,6.0,32,0.00,,,0.00,Wunderground v.1.15,2013-03-04 19:54:00,
2013-03-04 14:00:00,84.3,51.2,29.79,WSW,248,2.0,4.0,32,0.00,,,0.00,Wunderground v.1.15,2013-03-04 20:00:00,
2013-03-04 14:10:00,84.1,50.2,29.79,West,275,3.0,3.0,31,0.00,,,0.00,Wunderground v.1.15,2013-03-04 20:10:00,
2013-03-04 14:20:00,84.3,50.4,29.79,SSE,162,2.0,2.0,31,0.00,,,0.00,Wunderground v.1.15,2013-03-04 20:20:00,
2013-03-04 14:30:00,84.7,49.8,29.78,West,270,3.0,7.0,30,0.00,,,0.00,Wunderground v.1.15,2013-03-04 20:30:00,
2013-03-04 14:35:00,84.6,50.6,29.78,West,281,3.0,7.0,31,0.00,,,0.00,Wunderground v.1.15,2013-03-04 20:35:00,
2013-03-04 14:45:00,86.3,50.3,29.77,SW,217,1.0,4.0,29,0.00,,,0.00,Wunderground v.1.15,2013-03-04 20:45:00,
2013-03-04 14:55:00,86.9,50.8,29.77,WNW,288,2.0,2.0,29,0.00,,,0.00,Wunderground v.1.15,2013-03-04 20:55:00,
2013-03-04 15:00:00,87.0,50.9,29.77,SSE,148,2.0,2.0,29,0.00,,,0.00,Wunderground v.1.15,2013-03-04 21:00:00,
2013-03-04 15:10:00,87.3,49.2,29.77,WNW,286,2.0,2.0,27,0.00,,,0.00,Wunderground v.1.15,2013-03-04 21:10:00,
2013-03-04 15:20:00,87.5,50.4,29.77,South,174,2.0,4.0,28,0.00,,,0.00,Wunderground v.1.15,2013-03-04 21:20:00,
2013-03-04 15:30:00,88.5,49.2,29.76,SSW,211,2.0,2.0,26,0.00,,,0.00,Wunderground v.1.15,2013-03-04 21:30:00,
2013-03-04 15:40:00,88.3,49.1,29.76,SSW,203,2.0,2.0,26,0.00,,,0.00,Wunderground v.1.15,2013-03-04 21:40:00,
2013-03-04 15:50:00,88.1,47.9,29.76,SW,221,2.0,3.0,25,0.00,,,0.00,Wunderground v.1.15,2013-03-04 21:50:00,
2013-03-04 15:55:00,88.0,47.8,29.75,SSE,150,3.0,3.0,25,0.00,,,0.00,Wunderground v.1.15,2013-03-04 21:55:00,
2013-03-04 16:05:00,88.8,48.4,29.76,SW,221,2.0,3.0,25,0.00,,,0.00,Wunderground v.1.15,2013-03-04 22:05:00,
2013-03-04 16:14:00,89.0,47.5,29.75,SW,236,2.0,2.0,24,0.00,,,0.00,Wunderground v.1.15,2013-03-04 22:14:00,
2013-03-04 16:20:00,89.3,46.6,29.75,West,279,2.0,2.0,23,0.00,,,0.00,Wunderground v.1.15,2013-03-04 22:20:00,
2013-03-04 16:29:00,88.5,46.0,29.75,NW,304,2.0,2.0,23,0.00,,,0.00,Wunderground v.1.15,2013-03-04 22:29:00,
2013-03-04 16:35:00,88.4,45.9,29.75,SSW,210,2.0,2.0,23,0.00,,,0.00,Wunderground v.1.15,2013-03-04 22:35:00,
2013-03-04 16:45:00,89.1,46.5,29.75,WSW,248,2.0,4.0,23,0.00,,,0.00,Wunderground v.1.15,2013-03-04 22:45:00,
2013-03-04 16:54:00,89.3,46.6,29.74,SE,136,2.0,2.0,23,0.00,,,0.00,Wunderground v.1.15,2013-03-04 22:54:00,
2013-03-04 17:00:00,89.0,45.2,29.74,WNW,289,1.0,2.0,22,0.00,,,0.00,Wunderground v.1.15,2013-03-04 23:00:00,
2013-03-04 17:10:00,88.3,45.8,29.74,SSW,212,1.0,1.0,23,0.00,,,0.00,Wunderground v.1.15,2013-03-04 23:10:00,
2013-03-04 17:20:00,89.2,45.4,29.74,SW,214,1.0,4.0,22,0.00,,,0.00,Wunderground v.1.15,2013-03-04 23:20:00,
2013-03-04 17:30:00,87.8,44.2,29.74,South,188,1.0,1.0,22,0.00,,,0.00,Wunderground v.1.15,2013-03-04 23:30:00,
2013-03-04 17:35:00,87.1,43.6,29.74,West,266,1.0,1.0,22,0.00,,,0.00,Wunderground v.1.15,2013-03-04 23:35:00,
2013-03-04 17:45:00,85.7,43.6,29.74,South,174,1.0,1.0,23,0.00,,,0.00,Wunderground v.1.15,2013-03-04 23:45:00,
2013-03-04 17:55:00,85.5,44.6,29.74,WSW,245,0.0,1.0,24,0.00,,,0.00,Wunderground v.1.15,2013-03-04 23:55:00,
2013-03-04 18:05:00,84.7,43.9,29.75,SW,217,0.0,1.0,24,0.00,,,0.00,Wunderground v.1.15,2013-03-05 00:05:00,
2013-03-04 18:10:00,84.1,43.4,29.75,WSW,254,0.0,0.0,24,0.00,,,0.00,Wunderground v.1.15,2013-03-05 00:10:00,
2013-03-04 18:20:00,82.2,43.9,29.74,WSW,239,0.0,0.0,26,0.00,,,0.00,Wunderground v.1.15,2013-03-05 00:20:00,
2013-03-04 18:30:00,80.3,44.2,29.74,WSW,239,0.0,0.0,28,0.00,,,0.00,Wunderground v.1.15,2013-03-05 00:30:00,
2013-03-04 18:40:00,78.6,43.7,29.74,WSW,239,0.0,0.0,29,0.00,,,0.00,Wunderground v.1.15,2013-03-05 00:40:00,
2013-03-04 18:50:00,77.0,44.0,29.74,WSW,240,0.0,0.0,31,0.00,,,0.00,Wunderground v.1.15,2013-03-05 00:50:00,
2013-03-04 19:00:00,75.3,43.4,29.74,WSW,238,0.0,0.0,32,0.00,,,0.00,Wunderground v.1.15,2013-03-05 01:00:00,
2013-03-04 19:09:00,73.8,44.4,29.75,WSW,239,0.0,0.0,35,0.00,,,0.00,Wunderground v.1.15,2013-03-05 01:09:00,
2013-03-04 19:15:00,73.0,44.5,29.75,WSW,239,0.0,0.0,36,0.00,,,0.00,Wunderground v.1.15,2013-03-05 01:15:00,
2013-03-04 19:25:00,71.8,44.1,29.75,WSW,239,0.0,0.0,37,0.00,,,0.00,Wunderground v.1.15,2013-03-05 01:25:00,
2013-03-04 19:34:00,70.8,43.9,29.75,WSW,239,0.0,0.0,38,0.00,,,0.00,Wunderground v.1.15,2013-03-05 01:34:00,
2013-03-04 19:40:00,70.2,44.1,29.75,WSW,239,0.0,0.0,39,0.00,,,0.00,Wunderground v.1.15,2013-03-05 01:40:00,
2013-03-04 19:50:00,68.9,45.5,29.75,WSW,239,0.0,0.0,43,0.00,,,0.00,Wunderground v.1.15,2013-03-05 01:50:00,
2013-03-04 20:00:00,68.1,45.4,29.75,WSW,239,0.0,0.0,44,0.00,,,0.00,Wunderground v.1.15,2013-03-05 02:00:00,
2013-03-04 20:10:00,67.7,45.6,29.75,WSW,240,0.0,0.0,45,0.00,,,0.00,Wunderground v.1.15,2013-03-05 02:10:00,
2013-03-04 20:20:00,67.1,44.4,29.76,WSW,239,0.0,0.0,44,0.00,,,0.00,Wunderground v.1.15,2013-03-05 02:20:00,
2013-03-04 20:30:00,68.0,44.7,29.76,SSE,161,0.0,0.0,43,0.00,,,0.00,Wunderground v.1.15,2013-03-05 02:30:00,
2013-03-04 20:40:00,67.4,44.7,29.76,ESE,123,0.0,0.0,44,0.00,,,0.00,Wunderground v.1.15,2013-03-05 02:40:00,
2013-03-04 20:49:00,67.7,43.8,29.77,ESE,111,0.0,0.0,42,0.00,,,0.00,Wunderground v.1.15,2013-03-05 02:49:00,
2013-03-04 20:55:00,68.1,43.5,29.77,ESE,111,0.0,0.0,41,0.00,,,0.00,Wunderground v.1.15,2013-03-05 02:55:00,
2013-03-04 21:05:00,67.9,44.0,29.78,ESE,111,0.0,0.0,42,0.00,,,0.00,Wunderground v.1.15,2013-03-05 03:05:00,
2013-03-04 21:14:00,67.1,45.0,29.79,ESE,111,0.0,0.0,45,0.00,,,0.00,Wunderground v.1.15,2013-03-05 03:14:00,
2013-03-04 21:20:00,66.5,45.6,29.78,ESE,111,0.0,0.0,47,0.00,,,0.00,Wunderground v.1.15,2013-03-05 03:20:00,
2013-03-04 21:30:00,65.6,45.9,29.78,ESE,112,0.0,0.0,49,0.00,,,0.00,Wunderground v.1.15,2013-03-05 03:30:00,
2013-03-04 21:40:00,64.8,47.3,29.79,ESE,111,0.0,0.0,53,0.00,,,0.00,Wunderground v.1.15,2013-03-05 03:40:00,
2013-03-04 21:45:00,64.6,47.1,29.79,ESE,111,0.0,0.0,53,0.00,,,0.00,Wunderground v.1.15,2013-03-05 03:45:00,
2013-03-04 21:55:00,64.2,48.2,29.80,ESE,111,0.0,0.0,56,0.00,,,0.00,Wunderground v.1.15,2013-03-05 03:55:00,
2013-03-04 22:04:00,63.5,48.5,29.79,ESE,111,0.0,0.0,58,0.00,,,0.00,Wunderground v.1.15,2013-03-05 04:04:00,
2013-03-04 22:10:00,63.1,48.5,29.80,ESE,111,0.0,0.0,59,0.00,,,0.00,Wunderground v.1.15,2013-03-05 04:10:00,
2013-03-04 22:20:00,62.9,50.1,29.80,ESE,111,0.0,0.0,63,0.00,,,0.00,Wunderground v.1.15,2013-03-05 04:20:00,
2013-03-04 22:30:00,62.8,52.1,29.80,ESE,111,0.0,0.0,68,0.00,,,0.00,Wunderground v.1.15,2013-03-05 04:30:00,
2013-03-04 22:40:00,62.0,50.5,29.81,ESE,111,0.0,0.0,66,0.00,,,0.00,Wunderground v.1.15,2013-03-05 04:40:00,
2013-03-04 22:49:00,61.2,51.3,29.80,ESE,111,0.0,0.0,70,0.00,,,0.00,Wunderground v.1.15,2013-03-05 04:49:00,
2013-03-04 22:55:00,60.6,50.4,29.80,ESE,111,0.0,0.0,69,0.00,,,0.00,Wunderground v.1.15,2013-03-05 04:55:00,
2013-03-04 23:00:00,60.2,50.4,29.80,ESE,111,0.0,0.0,70,0.00,,,0.00,Wunderground v.1.15,2013-03-05 05:00:00,
2013-03-04 23:05:00,59.9,50.1,29.81,ESE,111,0.0,0.0,70,0.00,,,0.00,Wunderground v.1.15,2013-03-05 05:05:00,
2013-03-04 23:09:00,59.7,50.3,29.81,ESE,111,0.0,0.0,71,0.00,,,0.00,Wunderground v.1.15,2013-03-05 05:09:00,
2013-03-04 23:15:00,59.6,50.6,29.81,ESE,111,0.0,0.0,72,0.00,,,0.00,Wunderground v.1.15,2013-03-05 05:15:00,
2013-03-04 23:25:00,59.5,51.6,29.80,ESE,111,0.0,0.0,75,0.00,,,0.00,Wunderground v.1.15,2013-03-05 05:25:00,
2013-03-04 23:34:00,58.9,51.7,29.80,ESE,111,0.0,0.0,77,0.00,,,0.00,Wunderground v.1.15,2013-03-05 05:34:00,
2013-03-04 23:40:00,58.5,51.7,29.80,ESE,111,0.0,0.0,78,0.00,,,0.00,Wunderground v.1.15,2013-03-05 05:40:00,
2013-03-04 23:50:00,57.9,52.1,29.80,ESE,111,0.0,0.0,81,0.00,,,0.00,Wunderground v.1.15,2013-03-05 05:50:00,